Tracking 28081 objects as of 26-Sep-2023
HD Live streaming from Space Station
objects crossing your sky now

STARLINK-5318

Track STARLINK-5318 now!
10-day predictions
STARLINK-5318 is classified as:


NORAD ID: 55304
Int'l Code: 2023-010AM
Perigee: 577.1 km
Apogee: 581.3 km
Inclination: 70.0 °
Period: 96.1 minutes
Semi major axis: 6950 km
RCS: Unknown
Launch date: January 19, 2023
Source: United States (US)
Launch site: AIR FORCE WESTERN TEST RANGE (AFWTR)
Your satellite tracking list
Your tracking list is empty




NASA's NSSDC Master Catalog

Two Line Element Set (TLE):
1 55304U 23010AM  23268.90258366  .00000682  00000-0  64910-4 0  9993
2 55304  69.9990 122.8658 0003066 271.7606  88.3202 14.98331605 39091
Source of the keplerian elements: AFSPC